Regional Weather Roundup
Issued by NWS

Home | Current Version | Previous Version | Text Only | Print | Product List | Glossary Off
Versions: 1 2 3 4 5 6 7 8 9 10 11 12 13 14 15 16 17 18 19 20 21 22 23 24 25 26 27 28 29 30 31 32 33 34 35 36 37 38 39 40 41 42 43 44 45 46 47 48 49 50

618
ASUS43 KMPX 280610
RWRMN
WEATHER ROUNDUP FOR MINNESOTA
NATIONAL WEATHER SERVICE TWIN CITIES/CHANHASSEN MN
100 AM CDT FRI APR 28 2017


NOTE: "FAIR" INDICATES FEW OR NO CLOUDS BELOW 12,000 FEET WITH NO
SIGNIFICANT WEATHER AND/OR OBSTRUCTIONS TO VISIBILITY. N/A MEANS
CURRENT SKY AND/OR WEATHER CONDITIONS ARE NOT AVAILABLE.

MNZ060>063-068>070-280700-
   Twin Cities Metro

CITY           SKY/WX    TMP DP  RH WIND       PRES   REMARKS
TWIN CITIES    MOCLDY    35  25  66 W10       29.80R WCI  27
6HR MIN TEMP:  34; 6HR MAX TEMP:  36;

ST PAUL        CLOUDY    34  26  72 W9        29.81R WCI  27
CRYSTAL        CLOUDY    35  24  64 W9        29.79R WCI  28
LAKEVILLE      CLEAR     30  28  93 W6        29.81R WCI  24
EDEN PRAIRIE   CLOUDY    35  27  72 W7        29.79S WCI  29
6HR MIN TEMP:  35; 6HR MAX TEMP:  36;

SOUTH ST PAUL  CLOUDY    34  27  75 W5        29.80R WCI  30
LAKE ELMO      FAIR      34  28  80 W8        29.80R WCI  27
$$
MNZ001>005-007-008-013>017-022>024-027-028-280700-
   Northwest Minnesota

CITY           SKY/WX    TMP DP  RH WIND       PRES   REMARKS
BEMIDJI        CLOUDY    28  22  80 NW10      29.74R WCI  18
HALLOCK        CLOUDY    34  30  86 NW6       29.83R WCI  29
ROSEAU         MOCLDY    30  27  86 N9        29.78R WCI  22
WARROAD        MOCLDY    30  27  86 NW8       29.77R WCI  23
THIEF RVR FALL CLOUDY    29  26  89 NW9       29.81R WCI  20
CROOKSTON      CLOUDY    32  30  93 NW8       29.83S WCI  25
FOSSTON        CLEAR     25  21  86 NW10      29.79R WCI  15
DETROIT LAKES  CLOUDY    32  28  86 NW8       29.79R WCI  25
MOORHEAD       CLEAR     32  27  80 N16       29.83R WCI  21
PARK RAPIDS    CLOUDY    29  20  69 NW13      29.75R WCI  19
MAHNOMEN       FAIR      28  24  83 NW6       29.79R WCI  22
$$
MNZ006-009>011-018-025>026-280700-
   North Central Minnesota

CITY           SKY/WX    TMP DP  RH WIND       PRES   REMARKS
BAUDETTE       FLURRIES  29  24  82 N18       29.71R WCI  16
FLAG ISLAND    LGT SNOW  28  27  93 N17       29.74R WCI  16
INTL FALLS     CLOUDY    27  22  81 NW8       29.67R WCI  19
6HR MIN TEMP:  26; 6HR MAX TEMP:  28; 6HR PCP: TRACE;

WASKISH        CLOUDY    28  27  93 NW12      29.72S WCI  18
BIG FORK       CLOUDY    27  23  86 W5        29.69R WCI  21
LONGVILLE      MIX PCPN  28  27  93 W5        29.72R WCI  23
GRAND RAPIDS   FLURRIES  27  22  81 NW14      29.71R WCI  16
CRANE LAKE     CLOUDY    25  21  86 W3        29.67R
ORR            CLOUDY    27  21  80 W7        29.64R WCI  19
COOK           CLOUDY    27  23  86 W9        29.66R WCI  17
WALKER         CLOUDY    27  24  86 NW10      29.73R WCI  17
$$
MNZ012-019>021-037-280700-
   Northeast Minnesota

CITY           SKY/WX    TMP DP  RH WIND       PRES   REMARKS
DULUTH         CLOUDY    28  23  81 W10       29.66S WCI  19
6HR MIN TEMP:  28; 6HR MAX TEMP:  29; 6HR PCP: TRACE;

ELY            CLOUDY    25  21  86 NW7       29.63R WCI  17
HIBBING        CLOUDY    26  21  81 NW8       29.67R WCI  18
EVELETH        CLOUDY    28  22  81 W12       29.67R WCI  17
DULUTH HARBOR  CLOUDY    32  27  80 W14       29.72R WCI  22
TWO HARBORS    CLOUDY    30  23  74 W6        29.65R WCI  24
SILVER BAY     CLOUDY    28  25  86 SW6       29.63S WCI  22
GRAND MARAIS     N/A     28  24  85 W3        29.63R
G MARAIS ARPRT CLOUDY    21  16  79 CALM      29.56R
$$
MNZ029>031-032-039>041-046>048-054>057-064-280700-
   West Central Minnesota

CITY           SKY/WX    TMP DP  RH WIND       PRES   REMARKS
FERGUS FALLS   PTCLDY    34  28  80 NW13      29.81R WCI  25
WHEATON        CLEAR     34  28  80 NW5       29.85R WCI  30
MORRIS         MOCLDY    36  30  80 W7        29.80R
ALEXANDRIA     CLOUDY    35  29  78 W9        29.79R WCI  28
ELBOW LAKE     MOCLDY    33  31  92 NW6       29.81R WCI  27
WADENA         CLOUDY    30  27  86 NW6       29.77R WCI  24
GLENWOOD       CLOUDY    34  28  80 W8        29.80R WCI  27
APPLETON       CLOUDY    36  30  80 W5        29.81R
BENSON         CLOUDY    37  28  70 W7        29.83R
ORTONVILLE     PTCLDY    34  28  80 W6        29.81S WCI  29
MADISON        PTCLDY    34  30  86 SW7       29.82S WCI  28
WILLMAR        CLOUDY    36  32  87 SW7       29.82S
$$
MNZ033>034-036-042>043-049>051-058-059-280700-
   Central Minnesota

CITY           SKY/WX    TMP DP  RH WIND       PRES   REMARKS
ST CLOUD       CLOUDY    34  27  75 W12       29.78R WCI  25
6HR MIN TEMP:  32; 6HR MAX TEMP:  34;

SAUK CENTRE    CLOUDY    33  29  86 W7        29.79R WCI  27
PAYNESVILLE    CLOUDY    34  30  85 SW9       29.80S WCI  26
AITKIN         CLOUDY    32  21  64 W6        29.72R WCI  26
PINE RIVER     CLOUDY    28  25  86 W3        29.77S
BRAINERD       CLOUDY    31  24  75 W8        29.75R WCI  23
STAPLES        CLOUDY    28  27  93 W10       29.77R WCI  19
LONG PRAIRIE   CLOUDY    32  28  86 W6        29.78S WCI  26
LITTLE FALLS   CLOUDY    32  27  80 W6        29.78R WCI  26
BUFFALO        CLOUDY    35  27  74 SW7       29.81R WCI  29
MAPLE LAKE     CLOUDY    35  29  80 W7        29.80S WCI  29
HUTCHINSON     CLOUDY    35  31  86 SW5       29.82S WCI  31
$$
MNZ037-044-045-052-053-280700-
   East Central Minnesota

CITY           SKY/WX    TMP DP  RH WIND       PRES   REMARKS
PRINCETON      CLOUDY    34  27  75 W6        29.78R WCI  29
MORA           CLOUDY    32  25  74 W10G17    29.77R WCI  24
CAMBRIDGE      CLOUDY    34  25  69 W3        29.76R
RUSH CITY      CLOUDY    32  27  80 W8        29.76S WCI  25
MOOSE LAKE     CLOUDY    30  27  86 W8        29.71R WCI  23
HINCKLEY       CLOUDY    32  28  86 SW6       29.74R WCI  26
CLOQUET        CLOUDY    28  23  80 W6        29.69R WCI  22
MCGREGOR       CLOUDY    30  28  93 W3        29.72S
$$
MNZ071>073-080-081-089-090-097-098-280700-
   Southwest Minnesota

CITY           SKY/WX    TMP DP  RH WIND       PRES   REMARKS
MONTEVIDEO     CLOUDY    36  28  75 W5        29.82R
GRANITE FALLS  CLOUDY    36  32  83 S9        29.83F
CANBY          CLEAR     34  30  85 CALM      29.83S
MARSHALL       MOCLDY    31  28  89 S8        29.83F WCI  23
REDWOOD FALLS  CLOUDY    35  27  72 SW10      29.82S WCI  27
OLIVIA         CLOUDY    34  30  86 SW8       29.81S WCI  27
PIPESTONE      CLEAR     32  27  80 S7        29.83R WCI  26
WINDOM         CLEAR     30  28  93 CALM      29.84S
WORTHINGTON    CLEAR     28  26  92 S3        29.85S
JACKSON        CLEAR     30  28  93 CALM      29.85R
TRACY          CLEAR     32  29  86 S6        29.84R WCI  27
SLAYTON        CLEAR     29  27  92 SW8       29.84R WCI  21
$$
MNZ065>067-074>077-082>085-091>093-280700-
   South Central Minnesota

CITY           SKY/WX    TMP DP  RH WIND       PRES   REMARKS
MANKATO        CLOUDY    33  28  81 SW7       29.84S WCI  27
NEW ULM        CLOUDY    34  27  75 SW3       29.83S
ST JAMES       CLEAR     30  28  93 S3        29.86S
FAIRMONT       CLEAR     31  28  89 CALM      29.86S
GLENCOE        CLOUDY    35  32  88 SW6       29.81S WCI  30
FARIBAULT      CLOUDY    34  28  80 SW8       29.83S WCI  27
OWATONNA       CLOUDY    34  27  75 W8        29.83S WCI  27
WASECA         MOCLDY    32  28  86 W6        29.85S WCI  26
ALBERT LEA     CLEAR     32  27  80 W6        29.84S WCI  26
$$
MNZ078>079-086>088-094>096-280700-
   Southeast Minnesota

CITY           SKY/WX    TMP DP  RH WIND       PRES   REMARKS
ROCHESTER      CLOUDY    33  28  81 W14G20    29.82R WCI  23
6HR MIN TEMP:  32; 6HR MAX TEMP:  34;

RED WING       CLOUDY    36  25  64 W8        29.80R
STANTON        PTCLDY    34  28  80 SW9       29.81R WCI  26
DODGE CENTER   CLEAR     32  27  80 W9        29.82R WCI  24
WINONA         CLOUDY    36  28  75 NW8       29.83R
AUSTIN         CLOUDY    34  25  69 NW10      29.84R WCI  26
PRESTON        CLOUDY    32  26  77 W14G21    29.84R WCI  22
$$
ABBREVIATIONS USED IN REMARKS
   TC - TEMPERATURES IN CELSIUS
  WCI - WIND CHILL INDEX
   HX - HEAT INDEX
  VSB - VISIBILITY
$$




USA.gov is the U.S. government's official web portal to all federal, state and local government web resources and services.